Simultaneous Nadir Overpasses (SNOs) Predictions

Prediction of SNOs between GOES-16 and LANDSAT-8 Satellite Orbit:

Table of predicted SNOs for the next 14.0 days since TLE Epoch: 5/11/2024
Index Date Time (GOES-16) GOES-16 Lat,Lon LANDSAT-8 Lat,Lon Distance(km) Time Diff (sec)
1 05/11/2024 15:17:54 0.05, -75.20 0.43, -76.87 190.18 80
2 05/13/2024 15:08:20 0.05, -75.21 -0.21, -73.91 147.47 80
3 05/14/2024 03:29:44 -0.04, -75.21 -0.85, -79.11 442.24 80
4 05/15/2024 14:56:06 0.04, -75.23 -0.90, -70.96 486.36 80
5 05/16/2024 03:17:29 -0.04, -75.23 -0.22, -76.14 103.04 80
6 05/18/2024 03:02:33 -0.04, -75.26 0.40, -73.17 237.36 80
7 05/18/2024 15:23:47 0.03, -75.27 0.71, -78.32 348.04 80
8 05/20/2024 15:11:31 0.03, -75.30 0.04, -75.36 6.58 80
9 05/22/2024 15:01:54 0.03, -75.33 -0.62, -72.39 335.53 80
10 05/23/2024 03:23:16 -0.03, -75.34 -0.51, -77.57 253.07 80
11 05/25/2024 03:08:18 -0.02, -75.38 0.15, -74.59 89.34 80
